2021-088E (49264 NORAD) Tracking and Keplerian Element Data

This shows tracking and keplerian element data for the satellite.

Feedback or suggestion? Click here.




ElementValue
Catalog49264
Name2021-088E
Epoch Orbit257
Epoch Day287.99655438
Epoch Year2021
RAAN355.7176
Inclination97.6229
Eccentricity0.0016981
Argument of Perigee188.0711
Mean Anonmoly172.0245
Mean Motion15.01689507
Decay Rate1.263E-05
L11 49264U 21088E 21287.99655438 .00001263 00000-0 10156-3 0 9991
L22 49264 97.6229 355.7176 0016981 188.0711 172.0245 15.01689507 2574

Live tracking and technical data element details for 2021-088E (NORAD 49264). 2021-088E can be tracked NOW for your location showing map with azimuth and elevation plus other details from your city location.

Track the satellite on the map from your city or location and see movement details for azimuth, elevation, latitude, longitude, range, height, and movement on the map or in text.







IsCatalogInMostPopularTable: catalog: 49264, numindb: 7
Update: records affected: 1



GetName: 49264 2021-088E

Hit Count: updated at: Tue, 19 Oct 2021 08:49:36 GMT